Voltar ao catálogo

STARLINK-35198

AtivoComunicaçõesSSO
NORAD 65672·PAYLOAD·🇺🇸 United States

Lançado Sep 19, 2025 de Vandenberg Space Force Base

Loading…

Próximas Passagens (próximas 24 horas)

TLE

AtualizadoSource: CelesTrak SupGP

Época: Sep 14, 2026, 14:57 UTC

1 65672C 25211W   26257.62340278  .00000131  00000+0  40547-5 0  2577
2 65672  97.2836 297.9295 0001204 102.8968 195.5300 15.33437429    12

Acompanhe STARLINK-35198 em tempo real com AllMySat

Download on the App Store